Location: Newark
(23.5328°S, 46.7919°W)
Time: 15:06:40
(UTC+00:00)

N. Korean satellite - Pass Details

Date: 11 March 2021
Orbit: 452 x 499 km, 97.2° (Epoch: 17 April)

Event Time Altitude Azimuth Distance (km) Brightness Sun altitude
Rises 08:23:01 0° 353° (N) 2,576 10.1 -10.9°
Reaches altitude 10° 08:25:14 10° 342° (NNW) 1,702 9.1 -10.4°
Maximum altitude 08:28:31 31° 279° (W) 903 7.4 -9.7°
Drops below altitude 10° 08:31:51 10° 215° (SW) 1,719 9.1 -8.9°
Sets 08:34:07 0° 204° (SSW) 2,607 10.1 -8.4°
